Satellite-Ground Cal/Val Region Overpasses Predictions

Prediction of Satellite NPP Overpassing Cal/Val Region: PacNW

Region Location: (Latitude: 10.00, Longitude: 139.50) to (Latitude: 22.70, Longitude: 165.60).

Table of predicted overpasses for the next 14.0 days since TLE Epoch: 12/10/2016
Interval Starting Time Starting Location Ending Time Ending Location
1 12/10/2016 15:05:28 ( 22.68, 158.59) 12/10/2016 15:09:04 ( 10.00, 155.57)
2 12/11/2016 02:15:12 ( 12.31, 165.59) 12/11/2016 02:18:09 ( 22.70, 163.10)
3 12/11/2016 03:56:03 ( 10.02, 140.74) 12/11/2016 03:57:34 ( 15.37, 139.50)
4 12/11/2016 14:46:27 ( 22.65, 163.33) 12/11/2016 14:50:02 ( 10.03, 160.34)
5 12/12/2016 03:37:01 ( 10.00, 145.50) 12/12/2016 03:40:37 ( 22.68, 142.49)
6 12/12/2016 14:30:22 ( 12.22, 165.60) 12/12/2016 14:30:59 ( 10.05, 165.10)
7 12/12/2016 16:08:54 ( 22.66, 142.72) 12/12/2016 16:12:29 ( 10.04, 139.72)
8 12/13/2016 03:17:59 ( 10.04, 150.25) 12/13/2016 03:21:34 ( 22.66, 147.25)
9 12/13/2016 15:49:52 ( 22.69, 147.48) 12/13/2016 15:53:28 ( 10.01, 144.47)
10 12/14/2016 02:58:57 ( 10.01, 155.02) 12/14/2016 03:02:33 ( 22.70, 152.00)
11 12/14/2016 15:30:51 ( 22.65, 152.23) 12/14/2016 15:34:26 ( 10.03, 149.23)
12 12/15/2016 02:39:55 ( 10.05, 159.76) 12/15/2016 02:43:30 ( 22.68, 156.76)
13 12/15/2016 15:11:48 ( 22.67, 157.00) 12/15/2016 15:15:23 ( 10.05, 154.00)
14 12/16/2016 02:20:53 ( 10.03, 164.53) 12/16/2016 02:24:28 ( 22.65, 161.53)
15 12/16/2016 14:52:46 ( 22.69, 161.76) 12/16/2016 14:56:22 ( 10.02, 158.75)
16 12/17/2016 03:43:20 ( 10.02, 143.91) 12/17/2016 03:46:56 ( 22.70, 140.90)
17 12/17/2016 14:34:47 ( 18.96, 165.60) 12/17/2016 14:37:19 ( 10.04, 163.51)
18 12/17/2016 16:15:14 ( 22.65, 141.13) 12/17/2016 16:17:08 ( 15.96, 139.51)
19 12/18/2016 03:24:19 ( 10.06, 148.66) 12/18/2016 03:27:54 ( 22.68, 145.66)
20 12/18/2016 15:56:12 ( 22.67, 145.89) 12/18/2016 15:59:47 ( 10.05, 142.89)
21 12/19/2016 03:05:16 ( 10.04, 153.42) 12/19/2016 03:08:51 ( 22.66, 150.42)
22 12/19/2016 15:37:09 ( 22.69, 150.66) 12/19/2016 15:40:45 ( 10.01, 147.64)
23
